STARLINK-5907 (56021 NORAD) Tracking and Keplerian Element Data

This shows tracking and keplerian element data for the satellite.

Feedback or suggestion? Click here.




ElementValue
Catalog56021
NameSTARLINK-5907
Epoch Orbit717
Epoch Day127.00001157
Epoch Year2023
RAAN293.1967
Inclination42.9997
Eccentricity0.0001414
Argument of Perigee277.1761
Mean Anonmoly304.2948
Mean Motion15.54941646
Decay Rate-0.00926824
L11 56021U 23042AM 23127.00001157 -.00926824 00000+0 -14885-1 0 9993
L22 56021 42.9997 293.1967 0001414 277.1761 304.2948 15.54941646 7174



Live tracking and technical data element details for STARLINK-5907 (NORAD 56021). STARLINK-5907 can be tracked NOW for your location showing map with azimuth and elevation plus other details from your city location.







IsCatalogInMostPopularTable: catalog: 56021, numindb: -1

Insert: records affected: 1


GetName: 56021 STARLINK-5907

Hit Count: inserted at: Sat, 03 Jun 2023 17:20:24 GMT